FW5908 Weather Reports


time (UTC)temp
C
wind
direction
speed
KPH
gust
KPH
rain 1hr
cm
rain 24hr
cm
rain mn
cm
humidity
%
barometer
mb
20260906181200 31 213 3.2 8.0 0.00 0.00 0.03 65 1015.2
20260906180200 31 211 1.6 12.9 0.00 0.00 0.03 65 1015.3
20260906175200 31 222 8.0 12.9 0.00 0.00 0.03 66 1015.5
20260906174200 30 180 3.2 14.5 0.00 0.00 0.03 68 1015.7
20260906173200 30 186 1.6 8.0 0.00 0.00 0.03 70 1015.8
20260906172200 30 220 1.6 8.0 0.00 0.00 0.03 73 1015.9
20260906171200 29 240 4.8 6.4 0.00 0.00 0.03 74 1016.0
20260906170200 28 225 3.2 4.8 0.00 0.00 0.03 80 1016.2
20260906165200 27 84 0.0 1.6 0.00 0.00 0.03 83 1016.3
20260906164200 27 84 0.0 3.2 0.00 0.00 0.03 84 1016.2
20260906163200 27 88 0.0 3.2 0.00 0.00 0.03 80 1016.3
20260906162200 27 88 0.0 9.7 0.00 0.00 0.03 76 1016.5
20260906161200 28 185 3.2 6.4 0.00 0.00 0.00 77 1016.7
20260906160159 28 245 1.6 4.8 0.00 0.00 0.00 78 1016.6
20260906155159 28 236 1.6 4.8 0.00 0.00 0.00 78 1016.3
20260906154159 27 240 0.0 4.8 0.00 0.00 0.00 79 1016.1
20260906153159 27 288 0.0 4.8 0.00 0.00 0.00 78 1016.2
20260906152159 27 263 0.0 6.4 0.00 0.00 0.00 78 1016.1
20260906151159 27 273 4.8 8.0 0.00 0.00 0.00 78 1016.0
20260906150159 27 283 1.6 8.0 0.00 0.00 0.00 79 1016.1
20260906145159 27 222 0.0 11.3 0.00 0.00 0.00 80 1016.0
20260906144159 27 240 1.6 6.4 0.00 0.00 0.00 81 1015.9
20260906143159 26 267 1.6 9.7 0.00 0.00 0.00 82 1016.1
20260906142159 26 269 4.8 14.5 0.00 0.00 0.00 82 1016.0
20260906141159 26 281 1.6 11.3 0.00 0.00 0.00 82 1016.1
20260906140159 26 324 1.6 6.4 0.00 0.00 0.00 83 1016.1
20260906135159 26 279 1.6 6.4 0.00 0.00 0.00 83 1016.2
20260906134159 25 302 1.6 6.4 0.00 0.00 0.00 84 1016.0
20260906133159 25 292 1.6 6.4 0.00 0.00 0.00 86 1016.0
20260906132159 25 306 1.6 6.4 0.00 0.00 0.00 86 1016.0
20260906131159 25 316 1.6 4.8 0.00 0.00 0.00 86 1016.0
20260906130159 24 329 0.0 8.0 0.00 0.00 0.00 86 1016.0
20260906125159 24 360 0.0 4.8 0.00 0.00 0.00 86 1015.9
20260906124159 24 5 1.6 4.8 0.00 0.00 0.00 86 1015.7
20260906123159 24 9 1.6 6.4 0.00 0.00 0.00 86 1015.6
20260906122159 24 355 4.8 6.4 0.00 0.00 0.00 86 1015.5
20260906121159 24 345 0.0 1.6 0.00 0.00 0.00 85 1015.6
20260906120159 24 344 0.0 4.8 0.00 0.00 0.00 85 1015.3
20260906115159 24 341 0.0 4.8 0.00 0.00 0.00 85 1015.1
20260906114159 24 342 1.6 4.8 0.00 0.00 0.00 85 1015.0
20260906113159 24 343 0.0 3.2 0.00 0.00 0.00 85 1015.0
20260906112159 24 344 0.0 3.2 0.00 0.00 0.00 85 1015.2
20260906111159 25 349 0.0 0.0 0.00 0.00 0.00 84 1015.1
20260906110159 25 349 0.0 3.2 0.00 0.00 0.00 85 1015.1
20260906105159 24 351 0.0 4.8 0.00 0.00 0.00 85 1014.9
20260906104159 24 355 3.2 4.8 0.00 0.00 0.00 85 1014.7
20260906103159 24 355 3.2 3.2 0.00 0.00 0.00 84 1014.6
20260906102159 25 355 0.0 3.2 0.00 0.00 0.00 84 1014.6
20260906101159 25 355 0.0 0.0 0.00 0.00 0.00 84 1014.5
20260906100159 24 355 0.0 0.0 0.00 0.00 0.00 85 1014.6
20260906095159 24 355 0.0 0.0 0.00 0.00 0.00 84 1014.6
20260906094159 25 355 0.0 0.0 0.00 0.00 0.00 84 1014.6
20260906093159 25 355 0.0 0.0 0.00 0.00 0.00 83 1014.6
20260906092158 25 355 0.0 0.0 0.00 0.00 0.00 83 1014.6
20260906091159 25 355 0.0 0.0 0.00 0.00 0.00 82 1014.6
20260906090158 25 355 0.0 0.0 0.00 0.00 0.00 82 1014.5
20260906085159 25 349 0.0 0.0 0.00 0.00 0.00 82 1014.5
20260906084159 25 349 0.0 0.0 0.00 0.00 0.00 82 1014.3
20260906083158 25 349 0.0 0.0 0.00 0.00 0.00 81 1014.3
20260906082159 25 355 0.0 0.0 0.00 0.00 0.00 81 1014.3
20260906081158 25 355 0.0 4.8 0.00 0.00 0.00 81 1014.3
20260906080158 25 260 1.6 6.4 0.00 0.00 0.00 81 1013.9
20260906075158 25 260 0.0 6.4 0.00 0.00 0.00 81 1014.1
20260906074158 25 277 1.6 4.8 0.00 0.00 0.00 81 1014.2
20260906073158 25 355 0.0 0.0 0.00 0.00 0.00 81 1014.2
20260906072158 25 355 0.0 4.8 0.00 0.00 0.00 81 1014.2
20260906071158 25 351 0.0 3.2 0.00 0.00 0.00 81 1014.5
20260906070158 25 351 0.0 1.6 0.00 0.00 0.00 81 1014.6
20260906065158 25 351 0.0 3.2 0.00 0.00 0.00 81 1014.5
20260906064158 25 351 0.0 3.2 0.00 0.00 0.00 81 1014.5
20260906063158 26 351 0.0 3.2 0.00 0.00 0.00 81 1014.6
20260906062158 26 351 1.6 3.2 0.00 0.00 0.00 80 1014.6
20260906061158 26 360 0.0 3.2 0.00 0.00 0.00 80 1014.6
20260906060158 26 360 0.0 1.6 0.00 0.00 0.00 80 1014.6
20260906055158 26 360 1.6 4.8 0.00 0.00 0.00 79 1014.5
20260906054158 26 355 0.0 4.8 0.00 0.00 0.00 79 1014.6
20260906053158 26 355 1.6 4.8 0.00 0.00 0.00 79 1014.7
20260906052158 26 360 0.0 4.8 0.00 0.00 0.00 78 1014.6
20260906051158 26 360 0.0 4.8 0.00 0.00 0.00 78 1014.6
20260906050158 26 75 1.6 4.8 0.00 0.00 0.00 77 1014.8
20260906045158 27 15 0.0 4.8 0.00 0.00 0.00 77 1014.7
20260906044158 27 355 3.2 4.8 0.00 0.00 0.00 76 1014.7
20260906043158 27 12 1.6 4.8 0.00 0.00 0.00 76 1014.8
20260906042158 27 17 1.6 6.4 0.00 0.00 0.00 76 1014.8
20260906041158 27 30 0.0 3.2 0.00 0.00 0.00 75 1014.7
20260906040158 27 23 1.6 3.2 0.00 0.00 0.00 75 1014.7
20260906035158 27 45 0.0 6.4 0.00 0.00 0.00 75 1014.7
20260906034158 27 33 0.0 4.8 0.00 0.00 0.00 75 1014.6
20260906033157 27 54 1.6 3.2 0.00 0.00 0.00 75 1014.2
20260906032158 27 24 0.0 3.2 0.00 0.00 0.00 75 1014.2
20260906031158 28 336 0.0 3.2 0.00 0.00 0.00 75 1013.9
20260906030158 28 360 0.0 4.8 0.00 0.00 0.00 75 1013.7
20260906025158 28 44 0.0 4.8 0.00 0.00 0.00 75 1013.7
20260906024157 28 45 1.6 4.8 0.00 0.00 0.00 74 1013.6
20260906023157 28 32 0.0 4.8 0.00 0.00 0.00 74 1013.4
20260906022157 28 34 0.0 6.4 0.00 0.00 0.00 74 1013.3
20260906021158 28 20 0.0 4.8 0.00 0.00 0.00 74 1013.0
20260906020157 28 55 1.6 3.2 0.00 0.00 0.00 74 1012.9
20260906015157 28 60 0.0 3.2 0.00 0.00 0.00 73 1012.8
20260906014157 29 55 0.0 0.0 0.00 0.00 0.00 73 1012.7
20260906013157 29 46 0.0 0.0 0.00 0.00 0.00 73 1012.5
20260906012157 30 48 0.0 0.0 0.00 0.00 0.00 72 1012.3
20260906011157 30 43 0.0 0.0 0.00 0.00 0.00 72 1012.2
20260906010157 30 76 0.0 0.0 0.00 0.00 0.00 71 1012.3
20260906005157 30 77 0.0 1.6 0.00 0.00 0.00 71 1012.1
20260906004157 31 57 1.6 3.2 0.00 0.00 0.00 70 1012.1
20260906003157 31 32 3.2 3.2 0.00 0.00 0.00 69 1012.2
20260906002157 31 41 1.6 1.6 0.00 0.00 0.00 69 1012.2
20260906001157 32 32 0.0 1.6 0.00 0.00 0.00 68 1012.2
20260906000157 32 32 1.6 3.2 0.00 0.00 0.00 67 1012.3
20260905235157 32 279 1.6 3.2 0.00 0.00 0.00 66 1012.2
20260905234157 32 278 1.6 3.2 0.00 0.00 0.00 65 1012.2
20260905233157 32 266 0.0 3.2 0.00 0.00 0.00 65 1012.2
20260905232157 32 288 3.2 3.2 0.00 0.00 0.00 64 1012.2
20260905231157 32 341 0.0 6.4 0.00 0.00 0.00 64 1012.1
20260905230157 32 281 1.6 6.4 0.00 0.00 0.00 65 1012.1
20260905225157 32 256 0.0 8.0 0.00 0.00 0.00 65 1012.1
20260905224157 32 267 4.8 11.3 0.00 0.00 0.00 64 1011.8
20260905223157 32 257 3.2 9.7 0.00 0.00 0.00 64 1011.9
20260905222157 32 225 0.0 6.4 0.00 0.00 0.00 64 1011.9
20260905221157 32 277 9.7 12.9 0.00 0.00 0.00 64 1012.0
20260905220157 32 257 3.2 11.3 0.00 0.00 0.00 64 1012.0
20260905215157 32 281 0.0 8.0 0.00 0.00 0.00 63 1012.1
20260905214157 32 340 3.2 6.4 0.00 0.00 0.00 63 1012.2
20260905213157 32 317 1.6 4.8 0.00 0.00 0.00 62 1012.4
20260905212157 32 267 0.0 6.4 0.00 0.00 0.00 64 1012.6
20260905211157 32 324 6.4 9.7 0.00 0.00 0.00 62 1012.7
20260905210157 32 54 0.0 6.4 0.00 0.00 0.00 62 1013.0
20260905205157 32 15 0.0 6.4 0.00 0.00 0.00 61 1013.1
20260905204156 32 343 0.0 8.0 0.00 0.00 0.00 61 1013.3
20260905203157 32 333 1.6 8.0 0.00 0.00 0.00 61 1013.5
20260905202156 32 48 4.8 9.7 0.00 0.00 0.00 59 1013.8
20260905201157 32 32 0.0 6.4 0.00 0.00 0.00 60 1013.9
20260905200157 32 11 4.8 8.0 0.00 0.00 0.00 59 1014.0
20260905195157 32 355 1.6 12.9 0.00 0.00 0.00 59 1014.1
20260905194156 32 355 8.0 9.7 0.00 0.00 0.00 59 1014.1
20260905193156 32 150 3.2 16.1 0.00 0.00 0.00 59 1014.2
20260905192156 32 84 1.6 9.7 0.00 0.00 0.00 59 1014.6
20260905191157 32 70 4.8 12.9 0.00 0.00 0.00 59 1014.7
20260905190156 32 49 1.6 11.3 0.00 0.00 0.00 62 1015.0
20260905185156 32 84 4.8 12.9 0.00 0.00 0.00 62 1015.4
20260905184156 32 98 4.8 9.7 0.00 0.00 0.00 63 1015.6
20260905183156 31 350 6.4 12.9 0.00 0.00 0.00 64 1015.7
20260905182156 31 44 3.2 14.5 0.00 0.00 0.00 65 1015.7